STARLINK-34320, 64217

Orbit data source: Space-Track

STARLINK-34320, 64217 is a payload satellite owned by SpaceX/Seattle (US) in LEO that was launched on Thu, 05 Jun 2025 UTC via an FALCON 9 launch vehicle from the Air Force Western Test Range (AFWTR). Payload-class satellites include a variety of spacecraft equipped with specific instruments for various scientific and technological missions. These include communications satellites like Starlink; space stations such as the ISS; scientific satellites like the Hubble; Earth observation satellites from companies like Planet Labs, Umbra, and HawkEye 360; GPS; miniature CubeSats for education and research; and military/defense satellites.

Loading next visibility...
Identifier
64217, 2025-117Q
Orbit
LEO
Last TLE update
8 hours ago
Origin
Manufacturer
SpaceX/Seattle
Mission
Operational spacecraft
Bus & Motor
STARLINK V2MO, Unknown motor
Mass
575 kg wet, ~530 kg dry
Launch date (UTC)
2025-06-05 (2 weeks ago)
Launch vehicle
FALCON 9
Launch site
Air Force Western Test Range (AFWTR)
Object type
Payload
Rocket body
Debris
Shape & HBR
Unknown
Radar Cross Section
Large (>1 m²)

Expand to show TLE details & history

TLE from 8 hours ago
0 STARLINK-34320
1 64217U 25117Q   25169.91668981 -.01461108  00000-0 -13918-1 0  9993
2 64217  53.1598 190.4560 0001429  85.8423 194.3067 15.68838147  4010
Epoch: 2025-06-18T22:00Z
TLE epoch observation values (Epoch: 2025-06-18T22:00:01.999Z)
Latitude
-52.14161°
Longitude
-120.36537°
Altitude
381.23 km
Speed
7.68 km/s
True Right ascension
07h 48m 08s
True Declination
-51° 57' 56"
Sunlit
Object was in daylight at epoch
Visualization orbit readout
Latitude
42.66732°
Longitude
-5.26473°
Altitude
368.578 km
Speed
7.694 km/s
Apparent Right ascension
10h 24m 02s
Apparent Declination
13° 10' 08"
Sunlit
Object is in daylight
Visualization observer readout
Local Sidereal Time
17:04:21
Azimuth
286.505° WNW
Elevation
0.888°
Doppler factor
1
Orbital elements
Apogee altitude
363.447 km
Perigee altitude
361.52 km
Semi-major axis
6,740.62 km
Eccentricity
0.00014
Inclination
53.1598°
RAAN
190.456°
Arg. of periapsis
85.8423°
True anomaly
Unknown
Mean anomaly
194.3067°
Eccentric anomaly
Unknown
Mean motion
3.92187 °/min
Orbital period
91.79 mins
BSTAR
-0.013918
Loading maneuver chart data...
Loading SW <> Apogee altitude chart data...
Loading historical data...
Loading historical data...
Loading historical data...
Loading historical data...
Loading historical data...
Loading historical data...
Loading historical data...

STARLINK-34320 Visibility forecast

Observer location: undefined°, undefined°

Span
Click to sort rows by Start time (UTC) header in descending order
Start Az.
Max El. time (UTC)
Max El. Az.
Max El.
End time (UTC)
End Az.
4 mins2025-06-19 11:05:54.860Z307.408° NW2025-06-19 11:06:54.860Z287.906° WNW44.416°2025-06-19 11:09:54.860Z132.568° SE
4 mins2025-06-20 03:36:54.860Z201.335° SSW2025-06-20 03:37:54.860Z169.25° S35.736°2025-06-20 03:40:54.860Z60.893° ENE
|